EW6133 Weather Reports


time (UTC)temp
C
wind
direction
speed
KPH
gust
KPH
rain 1hr
cm
rain 24hr
cm
rain mn
cm
humidity
%
barometer
mb
20260507210941 10 42 0.0 1.6 0.00 0.00 0.00 83 1016.0
20260507210439 10 42 0.0 1.6 0.00 0.00 0.00 83 1015.9
20260507205944 10 42 0.0 1.6 0.00 0.00 0.00 83 1015.8
20260507205440 10 42 0.0 1.6 0.00 0.00 0.00 82 1015.9
20260507204938 10 42 0.0 1.6 0.00 0.00 0.00 82 1015.9
20260507204436 10 38 0.0 3.2 0.00 0.00 0.00 82 1015.8
20260507203937 10 38 0.0 3.2 0.00 0.00 0.00 82 1015.8
20260507203719 10 38 0.0 1.6 0.00 0.00 0.00 82 1015.8
20260507202937 10 38 0.0 3.2 0.00 0.00 0.00 81 1015.8
20260507202438 10 38 0.0 3.2 0.00 0.00 0.00 81 1015.7
20260507201936 10 38 0.0 1.6 0.00 0.00 0.00 81 1015.6
20260507201712 10 43 0.0 4.8 0.00 0.00 0.00 80 1015.5
20260507200934 10 43 0.0 4.8 0.00 0.00 0.00 80 1015.4
20260507200434 11 21 0.0 3.2 0.00 0.00 0.00 79 1015.3
20260507200212 11 88 0.0 4.8 0.00 0.00 0.00 79 1015.2
20260507195433 11 59 0.0 4.8 0.00 0.00 0.00 78 1015.2
20260507194930 11 56 0.0 3.2 0.00 0.00 0.00 77 1015.1
20260507194431 11 61 0.0 3.2 0.00 0.00 0.00 77 1015.1
20260507193931 11 70 0.0 3.2 0.00 0.00 0.00 76 1015.0
20260507193428 11 70 0.0 3.2 0.00 0.00 0.00 76 1015.0
20260507192928 11 184 0.0 4.8 0.00 0.00 0.00 75 1015.0
20260507192429 11 143 1.6 9.7 0.00 0.00 0.00 75 1015.1
20260507191928 11 101 1.6 9.7 0.00 0.00 0.00 74 1015.1
20260507191426 11 139 1.6 4.8 0.00 0.00 0.00 74 1015.0
20260507190927 12 217 1.6 6.4 0.00 0.00 0.00 73 1015.0
20260507190427 12 60 1.6 9.7 0.00 0.00 0.00 72 1015.1
20260507185923 12 108 1.6 12.9 0.00 0.00 0.00 72 1015.0
20260507185704 12 96 1.6 12.9 0.00 0.00 0.00 71 1015.0
20260507184922 12 232 1.6 12.9 0.00 0.00 0.00 71 1015.0
20260507184421 12 213 1.6 12.9 0.00 0.00 0.00 71 1015.0
20260507183922 12 186 1.6 8.0 0.00 0.00 0.00 70 1015.0
20260507183421 12 108 1.6 8.0 0.00 0.00 0.00 70 1015.0
20260507182922 12 126 1.6 14.5 0.00 0.00 0.00 70 1014.8
20260507182424 12 201 1.6 14.5 0.00 0.00 0.00 69 1014.8
20260507181923 12 69 1.6 9.7 0.00 0.00 0.00 69 1014.8
20260507181423 12 124 1.6 9.7 0.00 0.00 0.00 68 1014.7
20260507180922 12 102 1.6 9.7 0.00 0.00 0.00 68 1014.7
20260507180421 12 190 1.6 9.7 0.00 0.00 0.00 68 1014.7
20260507175921 12 203 1.6 9.7 0.00 0.00 0.00 67 1014.6
20260507175421 12 166 1.6 6.4 0.00 0.00 0.00 67 1014.6
20260507174920 12 169 1.6 4.8 0.00 0.00 0.00 67 1014.6
20260507174418 12 196 1.6 6.4 0.00 0.00 0.00 67 1014.6
20260507173917 12 169 1.6 11.3 0.00 0.00 0.00 67 1014.6
20260507173416 13 120 1.6 11.3 0.00 0.00 0.00 67 1014.5
20260507173159 13 98 1.6 11.3 0.00 0.00 0.00 67 1014.5
20260507172415 13 61 1.6 11.3 0.00 0.00 0.00 66 1014.5
20260507171917 13 62 3.2 11.3 0.00 0.00 0.00 66 1014.5
20260507171658 13 148 1.6 9.7 0.00 0.00 0.00 65 1014.5
20260507170916 13 232 1.6 9.7 0.00 0.00 0.00 65 1014.5
20260507170414 13 69 0.0 4.8 0.00 0.00 0.00 65 1014.5
20260507165915 13 219 1.6 6.4 0.00 0.00 0.00 64 1014.4
20260507165413 13 55 1.6 8.0 0.00 0.00 0.00 64 1014.5
20260507164910 13 200 1.6 8.0 0.00 0.00 0.00 63 1014.5
20260507164409 13 115 1.6 6.4 0.00 0.00 0.00 63 1014.4
20260507163909 13 99 1.6 6.4 0.00 0.00 0.00 63 1014.5
20260507163410 13 298 1.6 4.8 0.00 0.00 0.00 64 1014.5
20260507163152 14 240 1.6 6.4 0.00 0.00 0.00 63 1014.5
20260507162411 14 195 1.6 6.4 0.00 0.00 0.00 61 1014.5
20260507161910 14 146 1.6 12.9 0.00 0.00 0.00 61 1014.4
20260507161412 14 221 1.6 12.9 0.00 0.00 0.00 61 1014.4
20260507161155 14 90 0.0 4.8 0.00 0.00 0.00 61 1014.5
20260507160410 14 175 1.6 3.2 0.00 0.00 0.00 61 1014.5
20260507155905 14 41 1.6 6.4 0.00 0.00 0.00 61 1014.6
20260507155403 14 83 1.6 6.4 0.00 0.00 0.00 61 1014.6
20260507154902 14 188 1.6 6.4 0.00 0.00 0.00 62 1014.6
20260507154404 15 196 1.6 6.4 0.00 0.00 0.00 61 1014.6
20260507153859 15 21 1.6 6.4 0.00 0.00 0.00 61 1014.5
20260507153635 15 111 1.6 4.8 0.00 0.00 0.00 61 1014.6
20260507153129 15 333 1.6 4.8 0.00 0.00 0.00 62 1014.6
20260507152341 15 351 1.6 6.4 0.00 0.00 0.00 61 1014.7
20260507151834 15 183 1.6 6.4 0.00 0.00 0.00 61 1014.7
20260507151338 15 132 1.6 6.4 0.00 0.00 0.00 62 1014.7
20260507150835 15 76 1.6 6.4 0.00 0.00 0.00 65 1014.7
20260507150616 14 53 1.6 6.4 0.00 0.00 0.00 65 1014.7
20260507145835 14 41 1.6 9.7 0.00 0.00 0.00 66 1014.7
20260507145335 14 292 1.6 9.7 0.00 0.00 0.00 66 1014.7
20260507144834 14 304 1.6 6.4 0.00 0.00 0.00 66 1014.7
20260507144334 14 45 1.6 6.4 0.00 0.00 0.00 67 1014.7
20260507143834 13 108 1.6 6.4 0.00 0.00 0.00 68 1014.7
20260507143333 13 98 1.6 6.4 0.00 0.00 0.00 67 1014.8
20260507142831 13 120 1.6 6.4 0.00 0.00 0.00 69 1014.8
20260507142331 13 146 1.6 6.4 0.00 0.00 0.00 69 1014.8
20260507142109 13 349 1.6 6.4 0.00 0.00 0.00 69 1014.9
20260507141331 13 125 1.6 6.4 0.00 0.00 0.00 68 1014.9
20260507141119 13 105 1.6 6.4 0.00 0.00 0.00 68 1015.0
20260507140333 13 38 0.0 6.4 0.00 0.00 0.00 67 1015.0
20260507135834 13 142 0.0 4.8 0.00 0.00 0.00 68 1015.0
20260507135354 13 282 0.0 1.6 0.00 0.00 0.00 67 1015.0
20260507135346 13 19 0.0 4.8 0.00 0.00 0.00 67 1015.0
20260507134333 13 282 0.0 1.6 0.00 0.00 0.00 67 1015.0
20260507133832 13 282 0.0 3.2 0.00 0.00 0.00 67 1015.0
20260507133334 13 282 0.0 3.2 0.00 0.00 0.00 67 1015.0
20260507132831 13 282 0.0 1.6 0.00 0.00 0.00 68 1015.1
20260507132334 13 282 0.0 1.6 0.00 0.00 0.00 68 1015.1
20260507132114 13 282 0.0 1.6 0.00 0.00 0.00 67 1015.1
20260507131613 13 282 0.0 1.6 0.00 0.00 0.00 67 1015.1
20260507130832 13 282 0.0 1.6 0.00 0.00 0.00 67 1015.1
20260507130611 13 282 0.0 3.2 0.00 0.00 0.00 68 1015.1
20260507130110 13 282 0.0 3.2 0.00 0.00 0.00 68 1015.1
20260507125332 13 203 0.0 1.6 0.00 0.00 0.00 67 1015.1
20260507124833 13 200 0.0 3.2 0.00 0.00 0.00 67 1015.2
20260507124333 13 201 0.0 3.2 0.00 0.00 0.00 67 1015.2
20260507123833 13 201 0.0 3.2 0.00 0.00 0.00 67 1015.3
20260507123332 13 201 0.0 3.2 0.00 0.00 0.00 67 1015.2
20260507123111 13 201 0.0 3.2 0.00 0.00 0.00 64 1015.3
20260507122325 13 94 0.0 3.2 0.00 0.00 0.00 65 1015.2
20260507121825 13 298 1.6 3.2 0.00 0.00 0.00 65 1015.3
20260507121606 13 298 1.6 4.8 0.00 0.00 0.00 65 1015.3
20260507120823 13 188 1.6 8.0 0.00 0.00 0.00 64 1015.4
20260507120326 13 143 1.6 8.0 0.00 0.00 0.00 65 1015.4
20260507115821 13 244 1.6 4.8 0.00 0.00 0.00 65 1015.4
20260507115322 12 190 1.6 8.0 0.00 0.00 0.00 67 1015.4
20260507114821 12 142 1.6 8.0 0.00 0.00 0.00 66 1015.4
20260507114321 12 136 1.6 4.8 0.00 0.00 0.00 66 1015.4
20260507113817 12 188 1.6 4.8 0.00 0.00 0.00 67 1015.4
20260507113556 12 125 0.0 4.8 0.00 0.00 0.00 67 1015.3
20260507112838 12 219 1.6 6.4 0.00 0.00 0.00 67 1015.4
20260507112830 12 121 1.6 6.4 0.00 0.00 0.00 66 1015.4
20260507111818 12 33 0.0 4.8 0.00 0.00 0.00 67 1015.4
20260507111318 12 5 0.0 1.6 0.00 0.00 0.00 68 1015.4
20260507111053 12 213 0.0 4.8 0.00 0.00 0.00 67 1015.4
20260507110553 12 213 1.6 8.0 0.00 0.00 0.00 65 1015.5
20260507105810 13 59 1.6 8.0 0.00 0.00 0.00 65 1015.5
20260507105311 13 79 0.0 4.8 0.00 0.00 0.00 66 1015.5
20260507104808 13 119 0.0 3.2 0.00 0.00 0.00 67 1015.5
20260507104310 13 121 1.6 4.8 0.00 0.00 0.00 66 1015.6
20260507103810 13 136 1.6 4.8 0.00 0.00 0.00 66 1015.5
20260507103309 13 56 0.0 3.2 0.00 0.00 0.00 67 1015.5
20260507102810 13 53 0.0 1.6 0.00 0.00 0.00 66 1015.5
20260507102307 13 54 1.6 9.7 0.00 0.00 0.00 64 1015.6
20260507101804 13 54 1.6 9.7 0.00 0.00 0.00 63 1015.6
20260507101306 13 267 0.0 6.4 0.00 0.00 0.00 65 1015.5
20260507100805 13 190 1.6 3.2 0.00 0.00 0.00 64 1015.5
20260507100305 13 197 1.6 8.0 0.00 0.00 0.00 67 1015.5
20260507095805 13 76 1.6 8.0 0.00 0.00 0.00 68 1015.6
20260507095541 13 134 1.6 9.7 0.00 0.00 0.00 68 1015.6
20260507094804 13 92 1.6 9.7 0.00 0.00 0.00 67 1015.6
20260507094304 13 65 1.6 4.8 0.00 0.00 0.00 67 1015.6
20260507093804 13 20 1.6 6.4 0.00 0.00 0.00 66 1015.6
20260507093302 13 165 1.6 6.4 0.00 0.00 0.00 67 1015.6
20260507092805 13 99 1.6 8.0 0.00 0.00 0.00 67 1015.6
20260507092306 13 191 3.2 8.0 0.00 0.00 0.00 66 1015.5
20260507091802 13 103 1.6 8.0 0.00 0.00 0.00 65 1015.7
20260507091304 13 89 0.0 6.4 0.00 0.00 0.00 69 1015.6
20260507090804 13 173 1.6 4.8 0.00 0.00 0.00 69 1015.6
20260507090302 13 111 1.6 4.8 0.00 0.00 0.00 69 1015.6
20260507085803 13 133 1.6 8.0 0.00 0.00 0.00 69 1015.6
20260507085306 13 199 1.6 8.0 0.00 0.00 0.00 69 1015.6
20260507085047 13 105 1.6 6.4 0.00 0.00 0.00 69 1015.6
20260507084302 12 205 1.6 4.8 0.00 0.00 0.00 71 1015.6
20260507083802 12 71 1.6 4.8 0.00 0.00 0.00 71 1015.5
20260507083304 12 214 1.6 4.8 0.00 0.00 0.00 72 1015.6
20260507082803 12 198 1.6 6.4 0.00 0.00 0.00 73 1015.6
20260507082306 12 157 1.6 9.7 0.00 0.00 0.00 73 1015.7
20260507081802 12 213 0.0 9.7 0.00 0.00 0.00 74 1015.6
20260507081302 12 139 0.0 4.8 0.00 0.00 0.00 74 1015.6
20260507080802 11 157 1.6 8.0 0.00 0.00 0.00 75 1015.6
20260507080304 11 115 1.6 8.0 0.00 0.00 0.00 75 1015.6
20260507075803 11 118 1.6 8.0 0.00 0.00 0.00 77 1015.6
20260507075544 11 56 1.6 8.0 0.00 0.00 0.00 77 1015.6
20260507074802 11 92 1.6 6.4 0.00 0.00 0.00 78 1015.6
20260507074303 11 91 1.6 4.8 0.00 0.00 0.00 79 1015.6
20260507073804 10 33 1.6 4.8 0.00 0.00 0.00 79 1015.5
20260507073546 10 50 0.0 4.8 0.00 0.00 0.00 79 1015.5
20260507072803 10 84 0.0 6.4 0.00 0.00 0.00 79 1015.5
20260507072306 10 96 0.0 6.4 0.00 0.00 0.00 79 1015.5
20260507071803 10 69 0.0 4.8 0.00 0.00 0.00 80 1015.5
20260507071543 10 72 0.0 4.8 0.00 0.00 0.00 79 1015.5
20260507070804 10 130 0.0 3.2 0.00 0.00 0.00 80 1015.4
20260507070304 10 130 1.6 8.0 0.00 0.00 0.00 80 1015.3
20260507065804 10 289 0.0 8.0 0.00 0.00 0.00 81 1015.4
20260507065305 10 345 0.0 4.8 0.00 0.00 0.00 81 1015.4
20260507064803 10 69 1.6 4.8 0.00 0.00 0.00 82 1015.4
20260507064330 10 119 0.0 3.2 0.00 0.00 0.00 85 1015.4
20260507064321 10 36 0.0 3.2 0.00 0.00 0.00 84 1015.4
20260507063303 9 115 1.6 4.8 0.00 0.00 0.00 86 1015.3
20260507063044 9 71 1.6 4.8 0.00 0.00 0.00 88 1015.3
20260507062305 8 80 0.0 4.8 0.00 0.00 0.00 90 1015.3
20260507061803 8 97 0.0 3.2 0.00 0.00 0.00 91 1015.2
20260507061545 8 31 0.0 3.2 0.00 0.00 0.00 93 1015.3
20260507060802 7 31 0.0 3.2 0.00 0.00 0.00 93 1015.2
20260507060303 7 31 0.0 1.6 0.00 0.00 0.00 93 1015.2
20260507055802 7 319 0.0 0.0 0.00 0.00 0.00 93 1015.1
20260507055306 7 319 0.0 0.0 0.00 0.00 0.00 93 1015.1
20260507054804 6 319 0.0 0.0 0.00 0.00 0.00 92 1015.1
20260507054304 6 319 0.0 0.0 0.00 0.00 0.00 92 1015.1
20260507053804 6 319 0.0 0.0 0.00 0.00 0.00 92 1015.0
20260507053325 6 319 0.0 0.0 0.00 0.00 0.00 91 1015.0
20260507053316 6 319 0.0 0.0 0.00 0.00 0.00 92 1015.0
20260507052306 6 319 0.0 0.0 0.00 0.00 0.00 91 1015.0
20260507051803 6 319 0.0 0.0 0.00 0.00 0.00 92 1014.9
20260507051302 6 319 0.0 0.0 0.00 0.00 0.00 91 1015.0
20260507051037 6 319 0.0 0.0 0.00 0.00 0.00 91 1014.9
20260507050304 7 319 0.0 0.0 0.00 0.00 0.00 91 1014.8
20260507045802 7 319 0.0 0.0 0.00 0.00 0.00 91 1014.8
20260507045305 7 319 0.0 0.0 0.00 0.00 0.00 91 1014.8
20260507044804 7 319 0.0 0.0 0.00 0.00 0.00 92 1014.8
20260507044302 7 319 0.0 0.0 0.00 0.00 0.00 92 1014.8
20260507043804 7 319 0.0 0.0 0.00 0.00 0.00 92 1014.8
20260507043304 7 315 0.0 0.0 0.00 0.00 0.00 92 1014.8
20260507042803 7 315 0.0 0.0 0.00 0.00 0.00 92 1014.8
20260507042306 7 315 0.0 0.0 0.00 0.00 0.00 91 1014.8
20260507041802 7 315 0.0 0.0 0.00 0.00 0.00 91 1014.8
20260507041302 7 315 0.0 0.0 0.00 0.00 0.00 90 1014.7
20260507040803 7 315 0.0 0.0 0.00 0.00 0.00 90 1014.7
20260507040302 7 315 0.0 0.0 0.00 0.00 0.00 90 1014.7
20260507040043 7 315 0.0 0.0 0.00 0.00 0.00 90 1014.7
20260507035302 7 315 0.0 0.0 0.00 0.00 0.00 90 1014.7
20260507034802 7 315 0.0 0.0 0.00 0.00 0.00 90 1014.6
20260507034305 7 315 0.0 0.0 0.00 0.00 0.00 90 1014.7
20260507033803 7 315 0.0 0.0 0.00 0.00 0.00 90 1014.6
20260507033302 7 315 0.0 0.0 0.00 0.00 0.00 90 1014.6
20260507032803 7 315 0.0 0.0 0.00 0.00 0.00 90 1014.6
20260507032306 7 315 0.0 0.0 0.00 0.00 0.00 90 1014.6
20260507031803 7 315 0.0 0.0 0.00 0.00 0.00 90 1014.5
20260507031302 7 315 0.0 0.0 0.00 0.00 0.00 90 1014.6
20260507031042 7 315 0.0 0.0 0.00 0.00 0.00 90 1014.6
20260507030541 7 315 0.0 0.0 0.00 0.00 0.00 90 1014.6
20260507025805 7 315 0.0 0.0 0.00 0.00 0.00 90 1014.6
20260507025306 7 315 0.0 0.0 0.00 0.00 0.00 90 1014.6
20260507024803 8 315 0.0 1.6 0.00 0.00 0.00 90 1014.5
20260507024540 8 315 0.0 1.6 0.00 0.00 0.00 90 1014.5
20260507023803 8 315 0.0 0.0 0.00 0.00 0.00 90 1014.5
20260507023304 8 315 0.0 0.0 0.00 0.00 0.00 90 1014.6
20260507022804 8 315 0.0 0.0 0.00 0.00 0.00 90 1014.6
20260507022306 8 315 0.0 3.2 0.00 0.00 0.00 90 1014.5
20260507022039 8 315 0.0 3.2 0.00 0.00 0.00 90 1014.5
20260507021304 8 310 0.0 1.6 0.00 0.00 0.00 90 1014.4
20260507021039 8 298 0.0 0.0 0.00 0.00 0.00 90 1014.4
20260507020303 8 298 0.0 0.0 0.00 0.00 0.00 90 1014.3
20260507015803 8 298 0.0 0.0 0.00 0.00 0.00 90 1014.4
20260507015305 8 298 0.0 0.0 0.00 0.00 0.00 90 1014.4
20260507014804 8 298 0.0 1.6 0.00 0.00 0.00 90 1014.4
20260507014303 8 298 0.0 1.6 0.00 0.00 0.00 90 1014.4
20260507013803 8 0 0.0 0.0 0.00 0.00 0.00 90 1014.4
20260507013301 8 0 0.0 1.6 0.00 0.00 0.00 90 1014.4
20260507012802 8 0 0.0 1.6 0.00 0.00 0.00 90 1014.4
20260507012540 8 0 0.0 0.0 0.00 0.00 0.00 90 1014.3
20260507011803 8 0 0.0 0.0 0.00 0.00 0.00 90 1014.3
20260507011303 8 0 0.0 0.0 0.00 0.00 0.00 90 1014.3
20260507010803 8 0 0.0 0.0 0.00 0.00 0.00 90 1014.3
20260507010302 8 0 0.0 0.0 0.00 0.00 0.00 90 1014.3
20260507005803 8 0 0.0 0.0 0.00 0.00 0.00 90 1014.3
20260507005305 8 0 0.0 0.0 0.00 0.00 0.00 90 1014.3
20260507004803 8 0 0.0 1.6 0.00 0.00 0.00 90 1014.3
20260507004303 8 0 0.0 1.6 0.00 0.00 0.00 90 1014.3
20260507004043 8 0 0.0 0.0 0.00 0.00 0.00 90 1014.3
20260507003305 8 0 0.0 1.6 0.00 0.00 0.00 90 1014.3
20260507002802 8 0 0.0 1.6 0.00 0.00 0.00 90 1014.4
20260507002541 8 0 0.0 1.6 0.00 0.00 0.00 90 1014.4
20260507001805 8 0 0.0 1.6 0.00 0.00 0.00 90 1014.4
20260507001545 8 0 0.0 1.6 0.00 0.00 0.00 90 1014.3
20260507000802 8 335 0.0 1.6 0.00 0.00 0.00 90 1014.3
20260507000306 8 335 0.0 1.6 0.00 0.00 0.00 90 1014.3
20260506235804 8 335 0.0 0.0 0.00 0.00 0.00 90 1014.3
20260506235306 8 335 0.0 0.0 0.00 0.00 0.00 90 1014.3
20260506234801 8 335 0.0 1.6 0.00 0.00 0.00 90 1014.3
20260506234302 8 335 0.0 1.6 0.00 0.00 0.00 90 1014.3
20260506233802 8 335 0.0 0.0 0.00 0.00 0.00 90 1014.2
20260506233305 8 335 0.0 0.0 0.00 0.00 0.00 90 1014.3
20260506232803 8 335 0.0 0.0 0.00 0.00 0.00 90 1014.3
20260506232306 8 335 0.0 1.6 0.00 0.00 0.00 89 1014.2
20260506231803 8 335 0.0 1.6 0.00 0.00 0.00 89 1014.3
20260506231302 8 335 0.0 0.0 0.00 0.00 0.00 89 1014.2
20260506231041 8 335 0.0 1.6 0.00 0.00 0.00 89 1014.2
20260506230543 8 335 0.0 1.6 0.00 0.00 0.00 89 1014.2
20260506225804 8 215 0.0 1.6 0.00 0.00 0.00 89 1014.1
20260506225305 8 215 0.0 3.2 0.00 0.00 0.00 89 1014.1
20260506225040 8 215 0.0 3.2 0.00 0.00 0.00 89 1014.1
20260506224604 8 227 0.0 0.0 0.00 0.00 0.00 89 1014.2
20260506224318 8 227 0.0 0.0 0.00 0.00 0.00 89 1014.2
20260506223301 8 227 0.0 0.0 0.00 0.00 0.00 89 1014.2
20260506222803 8 227 0.0 1.6 0.00 0.00 0.00 89 1014.2
20260506222305 8 227 0.0 1.6 0.00 0.00 0.00 88 1014.2
20260506221803 8 227 0.0 1.6 0.00 0.00 0.00 88 1014.1
20260506221304 8 227 0.0 0.0 0.00 0.00 0.00 88 1014.1
20260506221040 8 227 0.0 1.6 0.00 0.00 0.00 88 1014.1
20260506220303 8 227 0.0 1.6 0.00 0.00 0.00 88 1014.1
20260506215803 8 227 0.0 0.0 0.00 0.00 0.00 88 1014.1
20260506215542 8 227 0.0 1.6 0.00 0.00 0.00 88 1014.1
20260506214802 8 227 0.0 1.6 0.00 0.00 0.00 88 1014.0
20260506214301 8 227 0.0 1.6 0.00 0.00 0.00 88 1014.0
20260506213803 8 227 0.0 1.6 0.00 0.00 0.00 87 1014.0
20260506213301 8 227 0.0 1.6 0.00 0.00 0.00 87 1014.0
20260506212805 8 227 0.0 1.6 0.00 0.00 0.00 87 1014.1
20260506212538 8 227 0.0 1.6 0.00 0.00 0.00 87 1014.1
20260506211803 8 227 0.0 1.6 0.00 0.00 0.00 87 1014.1
20260506211541 8 221 0.0 1.6 0.00 0.00 0.00 87 1014.0